Terminal Aerodrome Forecast
Issued by NWS

Home | Current Version | Previous Version | Text Only | Print | Product List | Glossary On
Versions: 1 2 3 4 5 6 7 8 9 10 11 12 13 14 15 16 17 18 19 20 21 22 23 24 25 26 27 28 29 30 31 32 33 34 35 36 37 38 39 40 41 42 43 44 45 46 47 48 49
000
FTUS44 KHGX 051053 AAB
TAFSGR
TAF AMD
KSGR 051053Z 0511/0606 36020G32KT P6SM VCSH BKN015 OVC060
      TEMPO 0512/0516 6SM -TSRA BKN015CB
     FM051600 01020G30KT P6SM OVC015
     FM051900 01020G30KT P6SM BKN025 OVC100
     FM052200 01015G25KT P6SM SCT035 SCT100
     FM060100 01014KT P6SM FEW040 SCT100=

USA.gov is the U.S. government's official web portal to all federal, state and local government web resources and services.